Simultaneous Nadir Overpasses (SNOs) Predictions

Prediction of SNOs between NOAA-19 and TERRA Satellite Orbit:

Table of predicted SNOs for the next 14.0 days since TLE Epoch: 3/24/2018
Index Date (NOAA-19) Time (NOAA-19) Lat,Lon (NOAA-19) SZA (NOAA-19 ) Date (TERRA) Time (TERRA) Lat,Lon (TERRA) SZA (TERRA ) Distance(km) Time Diff (sec)
1 03/25/2018 18:27:45 76.75, -81.73 75.06 03/25/2018 18:27:48 76.75, -81.72 75.06 0.36 3
2 03/25/2018 19:18:30 -76.31, 87.33 105.28 03/25/2018 19:17:23 -76.39, 84.68 105.38 70.12 67
3 03/28/2018 00:01:18 -76.76, 14.93 105.80 03/28/2018 00:01:36 -76.75, 14.83 105.81 2.92 18
4 03/28/2018 00:52:16 76.41,-176.40 73.94 03/28/2018 00:51:07 76.50,-178.40 73.89 53.19 69
5 03/30/2018 05:35:01 76.77, 111.55 73.36 03/30/2018 05:35:21 76.76, 111.42 73.35 3.34 20
6 03/30/2018 06:25:55 -76.73, -81.02 106.69 03/30/2018 06:24:49 -76.74, -81.02 106.70 1.08 66
7 04/01/2018 11:08:34 -76.79,-151.88 107.48 04/01/2018 11:09:08 -76.81,-151.84 107.45 2.43 34
8 04/01/2018 11:59:39 76.73, 15.62 72.47 04/01/2018 11:58:35 76.75, 15.57 72.47 2.43 64
9 04/03/2018 16:42:18 76.80, -55.25 71.69 04/03/2018 16:42:54 76.83, -55.24 71.72 3.31 36
10 04/03/2018 17:33:12 -76.77, 112.15 108.35 04/03/2018 17:32:23 -76.76, 112.15 108.37 1.06 49
11 04/05/2018 22:15:51 -76.84, 41.27 109.12 04/05/2018 22:16:42 -76.83, 41.34 109.11 1.80 51




NCC Satellite Simultaneous Nadir Overpasses (SNOs) Prediction Service
